Springfield-Branson National Airport Airport (SGF)

 

Airport Diagram
Current Weather/Forecast (VFR Conditions)
METAR KSGF 132052Z 22005KT 10SM CLR 11/02 A2980 RMK AO2 SLP093 T01110017 56018
TAF KSGF 131720Z 1318/1418 21007KT P6SM BKN200 FM141100 31008KT P6SM BKN015 FM141200 32009KT 6SM BR BKN007 FM141600 33007KT P6SM OVC012

All Charts
General
Chart Name Download
AIRPORT DIAGRAM
TAKEOFF MINIMUMS
ALTERNATE MINIMUMS
HOT SPOT

Approaches
Chart Name Download
ILS OR LOC RWY 02
ILS OR LOC RWY 14
RNAV (GPS) RWY 02
RNAV (GPS) RWY 14
RNAV (GPS) RWY 20
RNAV (GPS) RWY 32
VOR/DME OR TACAN RWY 02
VOR OR TACAN RWY 20
HI-TACAN RWY 20


Inbound Traffic (Arrivals)

No inbound traffic.


Outbound Traffic (Departures)

No outbound traffic.